Terminal Aerodrome Forecast
Issued by NWS

Home | Current Version | Previous Version | Text Only | Print | Product List | Glossary On
Versions: 1 2 3 4 5 6 7 8 9 10 11 12 13 14 15 16 17 18 19 20 21 22 23 24 25 26 27 28 29 30 31 32 33 34 35 36 37 38 39 40 41 42 43 44 45 46
000
FTUS45 KREV 230719 AAA
TAFTRK
TAF AMD
KTRK 230719Z 2307/2406 VRB03KT 5SM -SHSN SCT015 OVC030
     FM231000 VRB03KT P6SM VCSH FEW025 BKN035
     FM231600 VRB03KT 4SM -SHSN BR FEW012 BKN020
     FM240500 VRB03KT P6SM BKN030=

USA.gov is the U.S. government's official web portal to all federal, state and local government web resources and services.